[[{"header":{"parameterUnit":"m.s-1","parameterCategory":1,"la1":30.2991,"la2":30.254,"lo1":-89.0895,"lo2":-89.0444,"dy":0.0017,"dx":0.0017,"nx":28,"ny":28,"refTime":"2023-10-14T21:00:00:Z","depth":0,"parameterNumber":2,"parameterNumberName":"U-component_of_WINDS"},"data":[0,0,0,0,0,0,0,0,0,0,0,0,0,0,0,0,0,0,0,0,0,0,0,0,0,0,0,0,0,0,0,0,0,0,0,0,0,0,0,0,0,0,0,0,0,0,0,0,0,0,0,0,0,0,0,0,0,0,3.4011,3.4011,0,3.4012,3.4012,3.4012,3.3947,3.3946,3.3944,3.3942,3.3942,3.3944,3.3946,0,0,0,0,0,0,0,0,0,0,0,0,0,3.3952,3.3954,3.4011,3.4011,3.4011,3.4012,3.4012,3.4012,3.3948,3.3946,3.3943,3.3942,3.3942,3.3944,3.3946,0,0,0,0,0,0,0,0,0,0,0,0,0,3.3968,3.3954,3.4011,3.3979,3.3976,3.4012,3.4012,3.4012,3.3948,3.3946,3.3943,3.3941,3.3941,3.3944,3.3946,3.4012,0,0,3.3953,3.3954,0,0,0,0,0,0,0,0,3.3967,3.397,3.3983,3.3981,3.3978,3.3977,3.3991,3.4012,3.3949,3.3959,3.3942,3.3939,3.3956,3.3957,3.3963,3.4012,3.4012,3.3954,3.3955,3.3956,3.3957,0,0,0,0,0,0,0,3.3966,3.397,3.4011,3.3984,3.398,3.3964,3.3964,3.3995,3.3972,3.3958,3.3953,3.3954,3.3954,3.3961,3.3962,3.4012,3.3953,3.3956,3.3957,3.3958,3.4118,3.412,0,0,0,0,0,0,3.3969,3.3969,3.4011,3.4011,3.3966,3.3967,3.3967,3.398,3.3971,3.3967,3.3956,3.3951,3.3958,3.396,3.3962,3.4041,3.3956,3.3958,3.396,3.4115,3.4118,3.4121,0,0,0,0,0,0,3.3968,3.3974,3.4011,3.3989,3.3992,3.3971,3.3986,3.3981,3.3988,3.397,3.3965,3.3967,3.3956,3.3959,3.4001,3.404,3.3959,3.3962,3.4112,3.4116,3.412,3.4197,0,0,0,0,0,0,3.3967,3.3974,3.3999,3.399,3.3994,3.405,3.3989,3.3983,3.3992,3.3985,3.3979,3.3976,3.3954,3.3997,3.4003,3.4041,3.3963,3.4108,3.4114,3.4118,3.4191,3.4203,3.4214,0,0,0,0,0,3.3965,3.402,3.4,3.4006,3.4025,3.4052,3.4054,3.4029,3.3996,3.4021,3.4009,3.3976,3.4034,3.4002,3.4008,3.4048,3.4105,3.4112,3.4118,3.4186,3.4201,3.4214,0,0,0,0,0,0,3.4033,3.4018,3.3996,3.405,3.4053,3.4041,3.4072,3.4045,3.4057,3.405,3.4017,3.4016,3.4064,3.406,3.4024,3.4112,3.4064,3.4072,3.4114,3.4128,3.4139,3.414,3.3965,0,0,0,0,0,3.4054,3.4078,3.4063,3.4112,3.4115,3.4093,3.4104,3.4084,3.4086,3.4087,3.4078,3.4081,3.41,3.4113,3.413,3.419,3.4188,3.422,3.4231,3.4241,3.4249,3.4282,3.4296,3.4142,3.4142,3.4142,0,0,3.4098,3.4093,3.411,3.4125,3.4125,3.4151,3.4095,3.4124,3.4143,3.4091,3.4131,3.4125,3.4126,3.4178,3.42,3.4176,3.4291,3.4249,3.4257,3.4259,3.429,3.4304,3.4317,3.4146,3.4146,3.4145,0,0,3.4191,3.4189,3.423,3.4232,3.4233,3.4219,3.4229,3.4222,3.4217,3.4256,3.4218,3.424,3.4273,3.4276,3.4282,3.4378,3.4348,3.4384,3.4445,3.4478,3.449,3.45,3.4537,3.455,3.4391,3.4392,3.4392,0,3.4245,3.4283,3.4255,3.4288,3.4296,3.4251,3.4293,3.4296,3.4302,3.4309,3.4281,3.4323,3.432,3.4373,3.4397,3.4403,3.4414,3.4385,3.449,3.4501,3.451,3.4544,3.4558,3.4396,3.4395,3.4395,3.4395,0,3.4351,3.4378,3.4411,3.442,3.4432,3.4469,3.4446,3.4462,3.4441,3.443,3.4471,3.4467,3.4482,3.4493,3.4472,3.4543,3.4528,3.4496,3.4447,3.453,3.4562,3.4574,3.4402,3.4401,3.4399,3.4398,0,0,3.4487,3.4481,3.4494,3.4498,3.4497,3.4517,3.4552,3.4568,3.4583,3.4589,3.4619,3.4648,3.4619,3.4625,3.4605,3.4633,3.4712,3.4597,3.4597,3.4621,3.4793,3.4819,3.4834,3.4692,3.4694,3.4696,3.4793,0,3.458,3.464,3.4617,3.4679,3.4705,3.4663,3.4694,3.4697,3.4687,3.4707,3.4696,3.4719,3.4677,3.4681,3.4707,3.4697,3.4747,3.469,3.472,3.4722,3.4723,3.485,3.4877,3.4969,3.4805,3.4807,3.4809,0,3.4695,3.4708,3.4774,3.477,3.478,3.4808,3.4822,3.4841,3.4844,3.4835,3.4843,3.4817,3.4851,3.4802,3.485,3.4812,3.4823,3.482,3.4823,3.4826,3.4772,3.4859,3.4997,3.5012,3.4828,3.4826,3.4825,0,3.4791,3.4824,3.4868,3.4873,3.4869,3.489,3.4889,3.4889,3.4901,3.4913,3.492,3.4935,3.4944,3.4957,3.4935,3.4901,3.4987,3.4935,3.4981,3.4982,3.5003,3.5002,3.5147,3.5007,3.5007,3.5006,3.5006,0,3.4898,3.494,3.4911,3.4939,3.4986,3.4957,3.5004,3.4999,3.4999,3.5025,3.4989,3.5014,3.4983,3.5005,3.4988,3.5031,3.5035,3.5029,3.5025,3.5034,3.5035,3.5042,3.5036,3.501,3.5009,3.5009,3.5008,0,3.5013,3.4995,3.5041,3.5034,3.5033,3.5068,3.5062,3.5087,3.5075,3.5109,3.5115,3.5096,3.5121,3.51,3.5123,3.5111,3.517,3.5155,3.517,3.5166,3.5215,3.5211,3.5371,3.5391,3.5236,3.5238,3.5239,0,3.5083,3.5115,3.5112,3.5127,3.5129,3.5154,3.5166,3.514,3.5154,3.516,3.5185,3.5206,3.5222,3.5263,3.5252,3.5269,3.5256,3.531,3.5258,3.5267,3.5259,3.5258,3.5262,3.5322,3.5324,3.5325,3.5326,0,3.5211,3.5201,3.522,3.5237,3.5253,3.5265,3.5274,3.5288,3.5261,3.5279,3.5304,3.5317,3.5341,3.5363,3.5377,3.5376,3.5348,3.5343,3.5355,3.5365,3.5373,3.5372,3.5201,3.5339,3.5338,3.5337,3.5336,3.5336,3.5307,3.5334,3.5337,3.536,3.5364,3.5374,3.5398,3.539,3.5411,3.5429,3.5412,3.5443,3.5445,3.5461,3.5464,3.5488,3.5465,3.5482,3.5486,3.5492,3.55,3.5368,3.549,3.5489,3.5489,3.5489,3.5488,0,3.5434,3.5434,3.5456,3.5471,3.5489,3.5461,3.5469,3.5487,3.5515,3.552,3.5537,3.5566,3.5588,3.5578,3.5597,3.5618,3.5606,3.5624,3.5624,3.5624,3.5518,3.5507,3.5634,3.5634,3.5634,3.5634,3.5634,3.5634,3.5503,3.5548,3.5539,3.5587,3.5586,3.5616,3.5624,3.5633,3.5637,3.5672,3.5691,3.5684,3.5684,3.5703,3.5722,3.5718,3.5728,3.5752,3.5744,3.5646,3.5631,3.5618,3.5607,3.5754,3.5754,3.5849,3.585,3.585]},{"header":{"parameterUnit":"m.s-1","parameterCategory":1,"la1":30.2991,"la2":30.254,"lo1":-89.0895,"lo2":-89.0444,"dy":0.0017,"dx":0.0017,"nx":28,"ny":28,"refTime":"2023-10-14T21:00:00:Z","depth":0,"parameterNumber":3,"parameterNumberName":"V-component_of_WINDS"},"data":[0,0,0,0,0,0,0,0,0,0,0,0,0,0,0,0,0,0,0,0,0,0,0,0,0,0,0,0,0,0,0,0,0,0,0,0,0,0,0,0,0,0,0,0,0,0,0,0,0,0,0,0,0,0,0,0,0,0,-1.1529,-1.1527,0,-1.1381,-1.1379,-1.1378,-1.1298,-1.1298,-1.1298,-1.1298,-1.1145,-1.1141,-1.1137,0,0,0,0,0,0,0,0,0,0,0,0,0,-1.1742,-1.1739,-1.1529,-1.1527,-1.1525,-1.1381,-1.1379,-1.1377,-1.1298,-1.1298,-1.1298,-1.1298,-1.1146,-1.1142,-1.1137,0,0,0,0,0,0,0,0,0,0,0,0,0,-1.1628,-1.1738,-1.1529,-1.1468,-1.1461,-1.1382,-1.1379,-1.1377,-1.1298,-1.1298,-1.1298,-1.1298,-1.1148,-1.1142,-1.1136,-1.1105,0,0,-1.1118,-1.1116,0,0,0,0,0,0,0,0,-1.1634,-1.162,-1.1479,-1.1472,-1.1465,-1.1358,-1.1398,-1.1286,-1.1298,-1.136,-1.1298,-1.1298,-1.1216,-1.1204,-1.1177,-1.1098,-1.1091,-1.1118,-1.1114,-1.1112,-1.111,0,0,0,0,0,0,0,-1.1642,-1.1626,-1.147,-1.1477,-1.1468,-1.1449,-1.1432,-1.1377,-1.1291,-1.1355,-1.1349,-1.1333,-1.1212,-1.1183,-1.1173,-1.1089,-1.1118,-1.1113,-1.1109,-1.1107,-1.0979,-1.0979,0,0,0,0,0,0,-1.166,-1.1633,-1.1475,-1.1466,-1.1551,-1.1445,-1.1426,-1.1392,-1.1292,-1.1276,-1.1333,-1.1329,-1.1193,-1.118,-1.1167,-1.1125,-1.1112,-1.1106,-1.1103,-1.0979,-1.0979,-1.0979,0,0,0,0,0,0,-1.1665,-1.1647,-1.1481,-1.1548,-1.1525,-1.1442,-1.1404,-1.139,-1.1361,-1.1275,-1.1259,-1.1319,-1.1193,-1.1176,-1.1122,-1.1119,-1.1104,-1.1098,-1.0979,-1.0979,-1.0979,-1.104,0,0,0,0,0,0,-1.1671,-1.1649,-1.1636,-1.1548,-1.1522,-1.1438,-1.1404,-1.1387,-1.1351,-1.1345,-1.1258,-1.1243,-1.1191,-1.1131,-1.1116,-1.111,-1.1094,-1.0979,-1.0979,-1.0979,-1.1038,-1.1042,-1.1046,0,0,0,0,0,-1.1679,-1.1658,-1.1636,-1.1617,-1.1504,-1.1438,-1.1423,-1.1363,-1.1351,-1.1337,-1.1283,-1.1246,-1.1122,-1.1126,-1.1109,-1.1101,-1.0978,-1.0979,-1.0979,-1.1036,-1.1042,-1.1046,0,0,0,0,0,0,-1.1746,-1.1645,-1.1619,-1.1569,-1.1513,-1.1424,-1.1405,-1.1371,-1.1316,-1.1313,-1.1241,-1.1222,-1.1175,-1.1133,-1.1139,-1.1067,-1.1046,-1.1043,-1.1096,-1.11,-1.1104,-1.1115,-1.1089,0,0,0,0,0,-1.1756,-1.1711,-1.1625,-1.1589,-1.1562,-1.1489,-1.1458,-1.1418,-1.1356,-1.1331,-1.1273,-1.1214,-1.1162,-1.1129,-1.1076,-1.1032,-1.1012,-1.1019,-1.1023,-1.1027,-1.1024,-1.0999,-1.1001,-1.098,-1.098,-1.098,0,0,-1.1774,-1.1713,-1.1689,-1.1601,-1.1552,-1.1508,-1.1469,-1.1423,-1.1389,-1.1324,-1.127,-1.1225,-1.1155,-1.1107,-1.1082,-1.107,-1.1026,-1.1027,-1.1031,-1.1026,-1.1,-1.1002,-1.1004,-1.098,-1.098,-1.098,0,0,-1.1784,-1.1733,-1.1698,-1.1651,-1.1579,-1.1531,-1.1523,-1.144,-1.1409,-1.1354,-1.1305,-1.1264,-1.1175,-1.1128,-1.1092,-1.1088,-1.1052,-1.1073,-1.1093,-1.107,-1.1072,-1.1073,-1.1072,-1.1072,-1.1071,-1.1071,-1.1071,0,-1.1815,-1.1745,-1.1684,-1.1642,-1.1605,-1.1546,-1.1511,-1.1468,-1.1382,-1.1358,-1.1346,-1.1235,-1.1184,-1.1124,-1.1123,-1.1096,-1.1085,-1.1081,-1.1076,-1.1077,-1.1077,-1.1075,-1.1075,-1.1074,-1.1074,-1.1073,-1.1073,0,-1.1788,-1.1741,-1.1721,-1.1641,-1.1603,-1.1564,-1.1498,-1.1466,-1.143,-1.1384,-1.1329,-1.1266,-1.12,-1.1184,-1.1147,-1.1119,-1.1114,-1.109,-1.1068,-1.1083,-1.108,-1.1079,-1.1078,-1.1077,-1.1076,-1.1076,0,0,-1.1833,-1.1722,-1.1716,-1.168,-1.1598,-1.156,-1.152,-1.1456,-1.1431,-1.1375,-1.1339,-1.1267,-1.1245,-1.1205,-1.1163,-1.1143,-1.1145,-1.1121,-1.1119,-1.1128,-1.1111,-1.113,-1.113,-1.1122,-1.1121,-1.1121,-1.1117,0,-1.1831,-1.1755,-1.1701,-1.1646,-1.1603,-1.1548,-1.1513,-1.1459,-1.1415,-1.1372,-1.1324,-1.1274,-1.1249,-1.1224,-1.1202,-1.115,-1.114,-1.1149,-1.1088,-1.1086,-1.1106,-1.1128,-1.1146,-1.1146,-1.1116,-1.1116,-1.1115,0,-1.1817,-1.1765,-1.1706,-1.1631,-1.161,-1.158,-1.1519,-1.1478,-1.1417,-1.1386,-1.1344,-1.1301,-1.1257,-1.124,-1.1178,-1.1186,-1.1158,-1.1128,-1.1127,-1.1118,-1.1101,-1.112,-1.1144,-1.1144,-1.1113,-1.1113,-1.1113,0,-1.1857,-1.1771,-1.1726,-1.1696,-1.1607,-1.1587,-1.1549,-1.1487,-1.1453,-1.14,-1.1378,-1.132,-1.1288,-1.1245,-1.1189,-1.1182,-1.1133,-1.1111,-1.1106,-1.1108,-1.1097,-1.1099,-1.1118,-1.1081,-1.1081,-1.1081,-1.1081,0,-1.186,-1.1826,-1.1742,-1.1714,-1.1676,-1.1614,-1.1578,-1.1535,-1.1481,-1.1444,-1.1393,-1.136,-1.1288,-1.1245,-1.1201,-1.1157,-1.1143,-1.1118,-1.1106,-1.1122,-1.1125,-1.1102,-1.11,-1.1081,-1.1081,-1.1081,-1.1081,0,-1.1896,-1.1839,-1.1786,-1.1707,-1.1686,-1.1661,-1.1593,-1.1564,-1.152,-1.1474,-1.1459,-1.1388,-1.1336,-1.1277,-1.1204,-1.1175,-1.1134,-1.1117,-1.1155,-1.1148,-1.1147,-1.1148,-1.1151,-1.1149,-1.1115,-1.1115,-1.1115,0,-1.1902,-1.1875,-1.1794,-1.1766,-1.173,-1.1685,-1.1651,-1.1591,-1.1557,-1.1487,-1.1467,-1.1411,-1.1364,-1.1283,-1.1225,-1.1171,-1.1152,-1.1157,-1.1143,-1.116,-1.1152,-1.1154,-1.1152,-1.116,-1.1161,-1.1162,-1.1162,0,-1.1917,-1.1891,-1.1844,-1.1788,-1.175,-1.1703,-1.1653,-1.1633,-1.1563,-1.1528,-1.1475,-1.1439,-1.1367,-1.1312,-1.1251,-1.1211,-1.1175,-1.1167,-1.1163,-1.1178,-1.1202,-1.1189,-1.1165,-1.1167,-1.1166,-1.1166,-1.1166,-1.1166,-1.1938,-1.1912,-1.1852,-1.1802,-1.176,-1.1715,-1.1685,-1.1637,-1.1592,-1.1529,-1.1497,-1.1445,-1.1386,-1.13,-1.1262,-1.122,-1.1208,-1.1202,-1.12,-1.12,-1.1205,-1.1209,-1.1209,-1.1209,-1.1209,-1.1208,-1.1208,0,-1.1951,-1.191,-1.1866,-1.1799,-1.1761,-1.1732,-1.1676,-1.1646,-1.1601,-1.155,-1.1505,-1.1445,-1.1393,-1.1332,-1.1277,-1.1255,-1.1237,-1.1243,-1.1243,-1.1235,-1.1219,-1.1228,-1.1258,-1.1258,-1.1258,-1.1258,-1.1258,-1.1258,-1.1953,-1.1909,-1.1876,-1.1811,-1.177,-1.1719,-1.169,-1.165,-1.1609,-1.1545,-1.1502,-1.1463,-1.1408,-1.1349,-1.13,-1.1283,-1.1265,-1.1276,-1.1254,-1.124,-1.1236,-1.1232,-1.124,-1.1272,-1.1272,-1.1274,-1.1274,-1.1274]}]]